Regional Weather Roundup
Issued by NWS Wakefield, VA

Home | Current Version | Previous Version | Graphics & Text | Print | Product List | Glossary On
Versions: 1 2 3 4 5 6 7 8 9 10 11 12 13 14 15 16 17 18 19 20 21 22 23 24 25 26 27 28 29 30 31 32 33 34 35 36 37 38 39 40 41 42 43 44 45 46 47 48 49 50
000
ASUS41 KAKQ 052315
RWRAKQ

REGIONAL WEATHER ROUNDUP
NATIONAL WEATHER SERVICE WAKEFIELD VA
700 PM EDT TUE MAY 05 2015

Note: "fair" indicates few or no clouds below 12,000 feet with no
significant weather and/or obstructions to visibility. * = Denotes
station may not report precipitation (e.g., rain,snow,etc.),
thunder or fog.

VAZ042-051-052>054-056-060000-
NORTHERN VIRGINIA

CITY           SKY/WX    TMP DP  RH WIND       PRES   REMARKS
WASH NATIONAL  LGT RAIN  71  63  75 SW13      30.18F
DULLES         NOT AVBL
FORT BELVOIR   CLOUDY    68  66  94 S5        30.20F
QUANTICO       LGT RAIN  68  64  87 S8        30.21F FOG
FREDERICKSBRG* RAIN      69  65  86 CALM      30.22R
STAFFORD*      RAIN      65  32  29 CALM      30.26S
WARRENTON      CLOUDY    68  65  90 SE5       30.20F
CULPEPER*      CLOUDY    67  63  87 S3        30.21F
MANASSAS*      MOSUNNY   68  66  94 CALM      30.19F
LEESBURG*      CLOUDY    73  64  73 S7        30.21R
WINCHESTER     MOSUNNY   75  54  46 SW6       30.20S
FRONT ROYAL*   CLOUDY    68  63  83 S7        30.20S
LURAY*         CLOUDY    73  59  60 W3        30.24R
$$

VAZ048-049-060>072-079>083-060000-
CENTRAL AND SOUTH CENTRAL VIRGINIA

CITY           SKY/WX    TMP DP  RH WIND       PRES   REMARKS
RICHMOND       MOSUNNY   82  57  42 S12       30.18F
CHESTERFIELD*  FAIR      81  54  39 S9        30.20S
PETERSBURG*    SUNNY     82  53  36 S6        30.21R
HANOVER        MOSUNNY   80  56  43 VRB6      30.19S
TAPPAHANNOCK*  MOSUNNY   80  51  36 S3        30.19S
QUINTON*       FAIR      82  59  45 S8        30.19S
CHARLOTTSVILLE PTSUNNY   72  62  71 N5        30.21R
GORDONSVILLE*  MOCLDY    67  64  92 W3        30.21R
ORANGE*        CLOUDY    70  64  83 CALM      30.23S
LOUISA*        DRIZZLE   66  64  94 E7        30.19F
BUMPASS*       CLOUDY    67  64  87 NW6       30.23R
FARMVILLE*     SUNNY     82  56  41 S10       30.18R
CREWE*         FAIR      80  55  42 S8        30.20S
FORT PICKETT*  FAIR      79  59  50 S12       30.21R
CHASE CITY*    FAIR      82  60  48 S3        30.21S
CLARKSVILLE*   FAIR      79  59  50 S8        30.21R
SOUTH HILL*    SUNNY     78  58  50 S7        30.27S
LAWRENCEVILLE* FAIR      79  58  48 S7        30.22R
EMPORIA*       SUNNY     77  55  47 SE6       30.24R
$$

VAZ088>098-060000-
SOUTHEAST VIRGINIA

CITY           SKY/WX    TMP DP  RH WIND       PRES   REMARKS
NORFOLK        MOSUNNY   79  50  36 S15G23    30.22S
VIRGINIA BEACH MOCLDY    81  48  31 S14G23    30.23S
NORFOLK NAVAL  PTSUNNY   83  52  34 S10G22    30.23S
WEST POINT*    SUNNY     83  51  32 S7        30.21S
SALUDA*        FAIR      80  57  45 S8        30.19S
NEWPORT NEWS   SUNNY     82  55  39 SW14      30.21S
LANGLEY AFB    SUNNY     79  56  44 S14       30.20S
FORT EUSTIS    SUNNY     79  56  45 S8        30.19S
WILLIAMSBURG*  SUNNY     82  59  44 S8        30.21S
HR EXEC AP*    FAIR      79  54  41 S9        30.24S
FRANKLIN*      SUNNY     78  53  42 S10       30.23S
WAKEFIELD      SUNNY     80  55  42 S8        30.22R
$$

VAZ020-022-025-037-045-060000-
WEST CENTRAL AND SOUTHWEST VIRGINIA

CITY           SKY/WX    TMP DP  RH WIND       PRES   REMARKS
STAUNTON*      CLOUDY    73  58  59 CALM      30.25R
WAYNESBORO*    CLOUDY    72  59  63 N5        30.24R
HOT SPRINGS VA CLOUDY    69  46  43 CALM      30.32S
LYNCHBURG      CLOUDY    78  55  44 S10       30.21S
DANVILLE       SUNNY     81  56  42 S6        30.21S
SOUTH BOSTON*  FAIR      80  56  43 MISG      30.20S
MARTINSVILLE   SUNNY     79  57  46 CALM      30.24S
ROANOKE        PTSUNNY   79  54  41 S12       30.23S
BLACKSBURG     PTSUNNY   71  53  53 S12       30.29S
DUBLIN*        PTSUNNY   76  53  44 CALM      30.27S
MARION*        PTSUNNY   71  52  50 W5        30.30S
HILLSVILLE*    CLOUDY    72  51  48 S5        30.29S
RICHLANDS*     FAIR      73  51  46 CALM      30.28F
WISE*          CLOUDY    73  46  38 CALM      30.30S
ABINGDON*      PTSUNNY   79  47  32 NE5       30.25S
$$

MDZ021>025-VAZ099-100-060000-
SOUTHERN MARYLAND AND THE DELMARVA PENINSULA

CITY           SKY/WX    TMP DP  RH WIND       PRES   REMARKS
PATUXENT RIVER MOSUNNY   70  61  73 SE7       30.18S
BAY BRIDGE APT   N/A    N/A N/A N/A W3        30.18S
LEONARDTOWN    PTSUNNY   79  57  47 CALM      30.19S
DOVER          CLEAR     76  64  65 E6        30.14S
GEORGETOWN     CLEAR     80  56  43 S13       30.18S
EASTON         MOSUNNY   82  59  44 SW12      30.21S
CAMBRIDGE      SUNNY     77  55  47 S7        30.19R
SALISBURY      CLEAR     77  56  48 SW12      30.19S
OCEAN CITY     CLEAR     69  56  62 SW14      30.21S
WALLOPS ISLAND CLEAR     67  54  63 S14G25    30.22S
ACCOMACK*      CLEAR     72  57  60 S14       30.21S
$$

NCZ012>017-030>032-060000-
NORTH CENTRAL AND EASTERN NORTH CAROLINA

CITY           SKY/WX    TMP DP  RH WIND       PRES   REMARKS
ROANOKE RAPIDS FAIR      77  55  47 S7        30.23S
RALEIGH        MOSUNNY   78  55  44 S8        30.24S
ELIZABETH CITY PTCLDY    74  51  44 S13       30.26S
AHOSKIE*       SUNNY     76  53  44 S5        30.24S
EDENTON*       MOSUNNY   73  53  49 S14       30.27S
CURRITUCK*     PTCLDY    75  48  38 S7        30.27R
KILL DEVIL HLS PTCLDY    71  53  52 S8        30.28S
MANTEO         PTCLDY    70  56  61 SW12      30.29S
CAPE HATTERAS  MOCLDY    68  55  63 S10       30.29F
TARBORO*       FAIR      80  52  38 S3        30.24F
GOLDSBORO      MOSUNNY   76  47  34 S9        30.24S
WASHINGTON     PTSUNNY   74  51  43 S8G16     30.28R
GREENVILLE     PTSUNNY   77  48  36 S12G18    30.27R
NEW BERN       PTSUNNY   71  50  47 S5        30.29F
WILMINGTON     PTSUNNY   71  55  56 E8        30.27F
$$

VAZ048-060000-
ELSEWHERE

CITY           SKY/WX    TMP DP  RH WIND       PRES   REMARKS
HARRISBURG PA  PTSUNNY   75  58  55 CALM      30.17S
BALTIMORE      PTSUNNY   78  56  46 S6        30.17S
ANNAPOLIS      MOSUNNY   74  56  53 S9        30.17S
ANDREWS AFB    LGT RAIN  70  63  78 VRB2      30.20R
PHILADELPHIA   MOCLDY    82  55  39 W10       30.15F
HENDERSON NC   SUNNY     78  52  40 S9        30.22F
GREENSBORO     MOSUNNY   79  53  40 S10       30.22S
ROCKY MOUNT    SUNNY     78  55  44 S5        30.24F
$$

VAZ100-060000-
MARINE

STATION/POSITION TIME  TEMP    WIND        PRES    WAVE   SWELL
                       AIR SEA DIR/SP/G            HT/PER HT/PER
                 (UTC) (F)     (DEG/KT/KT) (MB)    (FT/S) (FT/S)
BRANDYWINE LGT   2200   64 58  180/ 15/ 17 1021.8F
CAPE MAY NJ      2200   67 62  160/ 12/ 16 1021.6F
LEWES DE         2200   76 59  100/  2/  3 1021.6F
15NM E FENWICK I 2250   59 54              1022.4S   3/ 4
OCEAN-CITY-INLET 2200   60 65  210/ 13/ 17 1022.5F
WACHAPREAGUE VA  2200   72 72  200/ 14/ 18 1023.2F
THOMAS POINT MD  2300   66 59  190/  7/  8 1022.4F
GOOSES REEF MD   2300   66 61                N/A     1/ 2
COVE POINT MD    2200   66     190/  9/ 10 1022.8F
SOLOMONS ISLAND  2200      63                N/A
BISHOPS HEAD MD  2200   69 69  150/  8/  9 1022.2F
PINEY POINT MD   2200          140/  8/  9   N/A
CAMBRIDGE MD     2200   80 64  180/  8/ 12 1021.9F
LEWISETTA VA     2200   71 63              1021.6F
RAPPAHANNOCK LGT 2200          170/ 14/ 14 1023.3F
YORK RVR RNG VA  2200   77     210/ 13/ 15 1022.3F
YORKTOWN VA      2200   81 63  200/ 12/ 16 1022.5F
JAMESTOWN VA     2300   78 67  210/  8/ 12 1021.9S
DOMINION TERM VA 2200   75     210/  9/ 12 1023.4F
KIPTOPEKE VA     2200      67  190/  9/ 11   N/A
CHES BAY BRIDGE  2200   77 63  170/ 18/ 20 1022.9F
CAPE HENRY VA    2200   79     190/ 12/ 18 1022.3F
CHESAPEAKE LGHT  2200   67     180/ 26/ 27 1023.7F
WILLOUBY STN VA  2200   79     210/ 12/ 14 1024.0F
S CRANEY ISL VA  2200          200/ 10/ 15 1023.3F
CAPE HENRY BUOY  2228      60                N/A     3/11   2/11
1ST LANDING BUOY 2300      62                N/A     2/ 4
CAPE CHARLES BUO 2226      59                N/A     3/ 4   2/11
OFFSHORE WE BUOY 2211      56                N/A     3/11   2/11
64NM E OF VA BCH 2250   65 61  200/ 16/ 19 1024.7F   2/11   2/11
DUCK PIER NC     2200   73 55  180/ 14/ 17 1024.1S
44056 DUCK FRF   2211      58                N/A     2/11   2/11
OREGON INLET NC  2200   71 72  190/ 12/ 14 1025.8F
HATTERAS NC      2200   72 68  160/  6/ 10 1025.7F
DIAMOND SHLS NC  2250   72 77  160/ 16/ 17 1025.7F   3/11   2/11
CAPE LOOKOUT NC  2300   69     150/  8/  9 1025.4F
$$


USA.gov is the U.S. government's official web portal to all federal, state and local government web resources and services.